Theta_e
303 306 308 306 302 301 302 303 304 304 301 301 304 304 305 305 304 303 302 301 301 302 302 302 303 303 303 303 303 303 303 303 303 304 305 305 305 305 306 306 306 306 306 306
304 307 301 302 302 303 303 304 308 303 301 301 304 303 305 303 302 301 301 302 302 302 302 303 303 302 302 302 301 302 303 304 304 305 305 304 303 304 305 306 306 306 307 306
304 303 300 301 302 303 303 304 303 304 303 301 301 309 309 303 301 301 301 301 301 302 302 302 301 300 300 300 299 298 301 304 304 303 301 301 300 299 299 302 305 304 302 302
303 300 301 302 302 302 304 300 301 302 304 312 300 320 311 305 304 303 303 302 302 302 301 301 300 300 300 299 298 297 298 300 302 301 301 301 300 299 299 300 299 300 300 299
304 302 302 303 303 301 302 301 302 302 302 300 303 307 312 303 307 306 305 303 303 302 301 301 300 299 299 298 297 297 297 298 298 297 298 298 299 299 299 299 299 299 300 300
300 299 301 302 300 300 301 301 299 299 302 309 300 305 313 311 307 304 302 302 302 301 301 300 300 300 299 297 297 297 299 300 302 303 303 303 301 300 299 299 299 299 299 300
302 302 300 300 301 301 301 302 321 322 316 319 300 303 310 308 303 303 303 302 301 300 301 300 300 299 299 297 297 298 299 301 301 301 299 298 298 297 297 298 298 298 298 299
308 312 302 301 301 301 301 301 311 314 314 311 297 307 310 303 301 301 301 301 300 301 300 300 300 298 296 296 296 298 298 298 297 297 296 296 296 296 296 297 297 297 297 298
304 303 300 300 300 299 301 302 298 300 291 301 308 304 304 304 301 301 300 300 301 300 300 300 299 296 296 296 298 298 297 297 297 296 295 295 295 295 295 294 294 295 296 296
300 306 299 300 299 299 300 299 304 304 310 312 312 306 310 308 304 302 301 301 300 299 299 299 297 295 295 298 299 298 298 296 295 294 293 293 293 293 294 294 294 294 294 295
299 301 300 299 301 303 300 301 300 301 302 309 310 315 307 308 307 304 302 300 299 299 299 298 296 295 296 300 299 298 296 294 293 292 292 292 291 292 292 293 294 293 293 293
299 301 302 302 297 296 299 301 301 307 307 300 299 307 303 303 303 300 301 300 301 300 298 296 295 295 300 299 298 296 295 293 293 292 292 291 291 291 292 293 293 292 292 293
300 302 308 307 297 296 299 299 300 297 298 303 306 309 300 299 299 299 299 299 299 298 296 295 294 298 299 298 297 296 293 291 292 291 291 292 292 291 292 294 294 293 293 293
302 303 306 311 309 298 299 298 299 300 302 302 302 304 305 306 307 306 303 299 298 297 295 294 295 300 298 297 296 294 292 291 291 291 291 292 292 293 294 295 295 295 295 294
302 302 300 302 301 298 298 299 299 299 301 302 305 305 306 306 306 304 302 299 297 296 294 293 299 298 297 296 295 292 291 291 291 291 292 292 293 295 296 297 297 297 297 296
298 303 294 297 297 298 299 300 300 299 300 300 301 301 302 303 303 301 298 297 295 294 293 295 299 298 297 296 294 292 291 292 290 290 292 293 295 296 297 297 297 297 298 298
299 299 298 305 291 291 299 296 298 299 300 300 300 301 303 303 302 300 296 296 295 294 293 297 297 297 297 295 294 291 291 291 290 291 292 294 295 296 297 297 297 299 298 298
300 300 300 304 294 306 304 296 298 298 298 299 300 300 301 301 300 297 296 294 294 294 294 299 297 297 297 295 295 292 292 291 291 292 294 296 297 296 296 297 298 297 297 296
301 300 301 303 302 301 303 304 297 296 300 298 298 298 298 298 295 297 295 295 295 294 295 300 297 297 297 296 295 293 292 290 290 290 294 295 295 295 297 297 298 298 297 297
299 300 302 294 301 303 304 296 292 293 301 298 294 295 294 294 297 299 295 295 295 295 294 300 297 297 297 297 295 294 291 291 291 290 293 294 294 295 297 298 298 298 299 299
298 299 300 302 301 301 299 295 292 301 304 297 295 295 293 295 297 295 295 295 295 294 294 300 298 297 296 297 296 295 292 292 291 292 294 294 294 295 296 297 298 297 298 299
297 298 299 300 300 300 297 293 298 302 298 298 299 298 299 297 296 298 297 296 295 294 295 299 299 297 296 297 297 296 294 292 292 293 294 294 295 295 295 295 297 298 299 299
298 299 300 300 300 298 294 298 297 295 296 298 302 302 299 300 300 299 296 297 296 295 295 298 300 296 296 297 297 297 296 294 293 293 294 293 294 294 295 296 297 297 297 297
293 295 297 297 299 298 296 295 297 299 297 301 299 300 301 299 300 301 298 296 295 295 294 297 300 296 297 297 297 297 297 295 294 294 295 294 294 294 294 295 296 296 296 296
299 295 297 297 299 299 298 297 299 300 301 301 302 300 300 299 301 300 299 296 294 294 294 297 301 299 295 295 297 297 297 297 296 296 296 296 295 295 295 295 295 295 296 296
297 297 297 298 298 299 299 300 301 300 299 299 299 300 300 299 300 298 298 297 295 294 294 296 300 301 296 294 294 296 296 298 299 298 298 298 297 296 296 295 295 295 295 296
Wind_Speed
2 3 4 3 3 3 1 2 8 5 1 6 7 19 27 28 21 23 20 12 9 6 5 4 3 4 8 13 17 20 21 22 23 25 25 25 25 25 25 25 25 25 24 26
3 4 2 6 3 1 2 5 6 7 1 5 9 24 25 10 3 4 3 5 6 6 6 6 4 6 9 13 19 25 28 29 27 26 24 24 25 28 30 30 31 31 30 28
4 3 5 1 2 3 5 6 3 5 9 5 13 11 6 3 4 3 4 5 7 6 6 5 5 4 7 16 31 29 28 28 27 28 30 31 33 38 39 40 41 40 37 35
1 3 3 3 3 4 4 1 2 6 8 4 6 5 10 2 7 7 9 10 10 10 8 7 7 9 12 25 30 24 26 31 35 37 41 45 47 44 43 40 45 50 49 49
3 4 4 4 1 4 2 2 3 3 1 4 2 3 7 2 2 2 9 15 13 12 11 10 12 15 18 34 28 28 31 34 37 40 43 46 48 50 49 44 47 49 54 54
1 1 2 0 2 2 3 2 2 1 2 3 1 2 6 4 3 2 3 9 14 12 13 13 16 22 26 38 34 35 33 34 35 37 39 43 45 43 42 39 41 42 44 49
2 3 2 2 3 2 2 2 3 3 2 2 1 4 12 6 6 4 4 6 10 11 14 16 17 22 39 35 36 35 35 35 34 36 37 37 38 36 38 39 39 38 37 37
3 4 6 5 3 2 4 2 2 5 4 5 1 7 4 2 2 8 11 12 18 22 15 12 25 35 32 33 33 33 33 32 31 31 33 33 33 36 37 38 37 38 39 39
3 2 1 0 0 2 5 4 3 3 2 3 4 7 14 5 10 14 16 15 12 10 14 22 35 30 31 32 34 33 32 32 31 32 32 34 36 36 38 40 39 38 39 37
1 3 1 2 1 3 3 6 1 1 4 6 5 6 11 5 7 5 3 5 8 11 14 27 31 29 29 32 33 32 31 34 34 31 31 35 34 35 36 35 38 39 38 38
3 2 3 2 8 7 4 4 3 2 3 4 6 6 7 8 4 5 2 7 12 13 26 31 29 29 31 32 30 32 33 37 34 34 32 35 35 34 37 38 38 38 39 39
1 0 3 5 2 3 2 2 7 5 5 3 3 12 4 6 4 3 8 12 23 26 28 27 28 29 32 30 32 34 42 35 37 34 35 35 34 33 35 35 35 36 36 35
6 1 4 3 2 1 4 4 4 1 1 8 6 10 4 3 4 7 11 18 23 29 25 27 26 29 29 35 39 43 41 38 35 32 34 35 35 33 33 33 32 33 33 33
6 5 7 9 6 3 6 5 8 9 5 10 18 26 31 27 22 18 15 17 23 24 25 21 28 31 33 40 40 41 37 35 34 34 33 33 31 30 30 30 31 31 30 31
4 7 6 13 13 12 17 18 18 17 21 14 32 27 38 31 24 29 34 28 27 29 25 25 31 33 37 38 38 37 34 34 32 31 31 30 29 27 27 27 27 27 27 27
7 2 2 5 8 15 19 20 19 23 24 25 32 40 30 41 35 20 15 25 24 30 21 25 29 35 38 36 36 35 34 31 29 28 28 27 26 26 25 27 27 24 24 21
7 5 4 9 2 5 10 14 23 12 13 19 22 36 29 26 17 17 18 28 26 22 21 23 27 33 34 34 34 33 31 28 28 25 25 24 25 24 24 24 20 12 9 13
7 6 4 5 2 8 3 3 7 14 12 18 25 28 29 29 31 25 33 26 14 17 19 20 25 31 32 31 33 29 26 26 25 24 23 22 21 20 21 20 16 11 4 3
14 6 4 5 6 10 18 10 6 7 5 16 15 22 26 20 15 17 5 6 11 18 17 18 22 27 30 30 31 27 25 25 23 23 22 21 19 19 20 20 16 14 9 4
4 7 6 4 5 7 6 2 3 5 9 3 8 8 8 3 3 7 10 10 17 20 18 17 19 25 27 29 28 27 24 23 24 21 21 19 17 17 18 18 15 12 10 7
5 4 13 10 8 9 11 7 6 5 7 3 2 4 2 3 7 19 20 22 21 22 17 16 17 21 23 27 26 25 23 21 20 20 18 16 15 14 15 15 15 13 11 8
10 10 7 8 7 14 15 10 8 4 6 6 13 13 12 19 21 29 30 24 20 19 18 16 15 15 20 23 25 23 22 18 17 17 17 17 17 15 15 15 15 14 11 11
7 12 7 12 9 7 17 5 20 11 10 20 25 35 33 33 34 35 34 31 27 23 19 15 12 11 14 19 23 23 21 18 15 15 17 16 16 16 17 16 16 16 15 16
8 8 9 8 20 19 17 21 27 30 36 42 36 39 36 35 36 37 37 37 34 30 20 16 11 10 8 13 18 20 22 17 17 16 17 18 18 19 20 19 17 16 17 17
11 15 11 9 20 17 24 26 28 34 35 31 36 34 32 32 37 35 36 35 28 22 21 18 14 10 6 6 11 16 20 20 18 20 22 24 23 25 27 27 25 24 23 22
22 16 10 15 16 16 20 25 28 20 27 31 34 36 37 37 34 28 28 30 24 20 18 19 16 13 8 4 2 8 12 16 20 21 23 24 26 27 28 30 30 28 26 26
Wind_Direction
30 249 246 342 349 8 9 273 276 274 334 297 254 275 280 294 284 271 275 259 234 211 164 183 221 288 293 295 295 292 287 283 273 262 261 261 263 262 261 262 264 266 265 265
211 238 80 112 97 0 295 299 279 284 291 311 309 292 282 301 254 261 298 195 180 159 171 195 234 290 311 315 311 297 286 278 268 261 261 260 263 263 260 258 257 257 258 259
250 80 142 176 173 250 243 248 290 287 320 261 308 275 274 201 270 238 214 195 182 191 195 206 241 265 302 319 323 304 286 271 265 264 264 265 274 274 268 259 259 259 261 260
249 118 189 201 238 201 282 52 301 310 337 296 10 287 290 288 278 229 210 209 213 209 212 221 237 250 287 322 320 301 287 278 272 270 273 274 277 277 273 268 270 265 262 266
103 175 195 227 251 181 344 1 311 305 250 320 106 223 275 310 240 224 208 214 221 222 227 243 250 262 279 321 313 301 296 286 279 276 276 278 278 279 278 272 268 267 265 263
186 176 223 272 116 166 117 274 258 135 171 242 98 267 272 229 163 172 196 214 225 221 228 259 274 276 279 313 311 309 302 298 293 287 282 279 277 276 273 268 266 266 265 264
178 194 154 198 188 158 199 280 293 271 236 293 105 266 253 252 211 224 205 200 198 216 264 275 291 304 305 310 310 308 306 302 300 294 289 284 280 276 272 271 268 265 261 257
251 244 191 169 245 163 171 196 246 277 287 314 168 241 245 249 281 236 239 253 252 250 257 289 313 312 309 311 310 309 306 300 301 297 291 285 279 275 273 271 267 263 262 261
193 225 124 313 120 277 143 200 90 106 100 273 238 264 276 272 246 242 253 241 250 254 278 312 322 314 315 314 313 311 309 307 305 301 294 288 282 278 275 275 271 266 264 258
169 267 166 134 164 71 265 137 159 177 277 274 234 261 251 250 223 192 200 214 238 253 285 315 318 316 315 316 316 316 312 312 310 301 297 296 289 281 277 274 272 271 269 258
159 233 114 172 208 188 157 203 195 303 230 267 300 254 215 235 198 197 237 266 261 273 310 316 314 319 320 322 320 317 317 319 313 313 308 303 296 290 285 281 276 268 265 260
82 65 250 229 78 354 295 248 192 230 206 245 298 272 189 247 255 266 280 285 301 296 309 316 321 321 326 322 324 323 326 319 320 316 314 307 301 296 291 286 279 275 268 263
163 103 301 213 146 70 242 219 214 114 275 224 259 260 116 151 227 251 261 283 298 308 315 321 322 328 326 330 332 331 327 322 322 314 317 315 309 303 298 293 286 279 271 263
132 178 202 254 297 150 239 218 226 225 252 279 241 286 271 287 288 298 297 303 311 314 317 321 328 331 330 337 336 333 324 326 327 320 319 317 317 312 306 299 292 283 273 264
150 224 226 251 265 252 258 254 246 234 240 248 272 278 278 279 298 304 306 308 314 314 322 330 333 332 338 340 336 332 329 332 333 326 325 324 322 320 316 311 304 291 275 263
185 219 122 268 257 249 261 258 247 244 248 252 260 264 269 286 293 294 302 309 310 317 322 333 333 338 343 340 337 332 335 335 334 332 331 332 331 331 327 318 311 290 266 259
175 170 161 271 19 307 269 230 225 216 227 236 251 257 281 288 290 302 302 303 304 310 324 332 333 344 343 340 341 335 336 338 336 341 341 342 342 342 339 335 334 319 260 249
177 181 173 278 240 253 273 302 226 224 243 242 251 266 272 275 288 298 295 293 307 319 323 329 337 346 344 342 343 342 345 346 346 351 356 350 353 347 355 357 5 18 30 231
203 177 205 239 234 309 298 268 181 194 278 255 271 275 291 300 292 296 327 315 323 324 316 323 341 348 346 347 344 349 352 346 357 357 4 359 356 2 7 16 18 30 40 64
184 206 201 154 230 257 281 91 136 154 298 191 274 325 0 21 310 337 320 306 322 322 310 319 334 348 351 352 347 355 355 353 360 4 10 6 1 9 21 27 32 30 40 50
174 184 216 219 238 264 254 182 161 256 289 267 319 354 336 235 258 302 309 311 317 314 303 309 325 346 352 357 352 2 360 0 5 7 17 17 19 23 32 41 46 50 64 64
170 176 198 213 222 259 191 136 207 238 211 304 320 314 308 297 297 302 298 297 317 315 299 303 311 339 359 3 3 9 5 6 13 20 32 32 32 34 48 57 64 68 66 71
223 215 212 200 218 245 194 225 217 276 277 299 297 294 301 302 300 305 296 289 293 309 292 293 299 324 356 10 14 16 12 13 25 35 42 42 41 50 57 63 71 77 88 91
237 226 226 207 243 244 244 251 253 269 269 283 284 294 295 290 302 307 307 302 290 283 284 278 271 295 338 8 19 24 26 26 44 49 54 59 60 61 67 70 71 79 84 91
221 168 219 246 255 270 267 257 261 265 282 284 292 295 290 294 302 307 310 308 298 275 272 263 253 268 287 1 16 24 40 40 55 66 68 71 73 77 78 77 77 81 81 88
221 229 222 242 250 240 256 265 262 271 289 294 296 296 293 297 299 312 312 308 300 275 255 253 245 244 259 264 346 23 32 45 53 68 74 79 83 85 86 87 88 87 91 92